Location: Newark
(43.6583°N, 1.6617°E)
Time: 23:08:39
(UTC+00:00)

Transit 4A - Pass Details

Date: 02 September 2019
Orbit: 865 x 980 km, 66.8° (Epoch: 16 September)

Event Time Altitude Azimuth Distance (km) Brightness Sun altitude
Rises 15:59:53 0° 222° (SW) 3,665 11.9 25.7°
Reaches altitude 10° 16:02:29 10° 226° (SW) 2,724 11.5 25.3°
Maximum altitude 16:08:48 60° 305° (NW) 1,109 9.1 24.2°
Drops below altitude 10° 16:15:06 10° 26° (NNE) 2,717 10.1 23.0°
Sets 16:17:42 0° 30° (NNE) 3,655 10.6 22.6°
